Weather History for Bellingham, WA

Change the Weather History Date:

Monday, December 3, 2012

  Actual Average Record
Temperature  
Mean Temperature 49 °F 39 °F  
Max Temperature 53 °F 46 °F 59 °F (1989)
Min Temperature 45 °F 33 °F 20 °F (1994)
Degree Days  
Heating Degree Days 16 26  
Month to date heating degree days 76  
Cooling Degree Days 0 0  
Month to date cooling degree days 0  
Year to date cooling degree days 42  
Moisture  
Dew Point 42 °F    
Average Humidity 74    
Maximum Humidity 89    
Minimum Humidity 64    
Precipitation  
Precipitation 0.04 in 0.17 in 1.52 in (1982)
Month to date precipitation 0.51  
Year to date precipitation 32.12  
Sea Level Pressure  
Sea Level Pressure 29.85 in    
Wind  
Wind Speed 11 mph (SE)    
Max Wind Speed 24 mph    
Max Gust Speed 33 mph    
Visibility 10 miles    
Events Rain    
T = Trace of Precipitation, MM = Missing Value Source: NWS Daily Summary

Daily Weather History Graph

Daily Weather History Graph

Search for Another Location

Airport:

Trip Planner

Search our weather history database for the weather conditions in past years. The results will help you decide how hot, cold, wet, or windy it might be!

Date:

Astronomy

Dec. 03, 2012 Rise Set
Actual Time 7:45 AM PST 4:15 PM PST
Civil Twilight 7:08 AM PST 4:51 PM PST
Nautical Twilight 6:28 AM PST 5:31 PM PST
Astronomical Twilight 5:50 AM PST 6:09 PM PST
Moon 9:22 PM PST (12/3) 10:58 AM PST (12/3)
Length of Visible Light 9h 42m
Length of Day
8h 29m
Waning Gibbous, 77% of the Moon is Illuminated
Dec 3
Waning Gibbous
Dec 6
Last Quarter
Dec 13
New
Dec 19
First Quarter
Dec 28
Full

Hourly Weather History & Observations

Time (PST) Temp. Windchill Dew Point Humidity Pressure Visibility Wind Dir Wind Speed Gust Speed Precip Events Conditions
12:53 AM 46.9 °F - 43.0 °F 86% 29.73 in 10.0 mi SSE 5.8 mph - N/A   Partly Cloudy
1:53 AM 48.0 °F - 43.0 °F 83% 29.75 in 10.0 mi SSE 11.5 mph 19.6 mph N/A   Overcast
2:21 AM 48.2 °F - 42.8 °F 82% 29.72 in 10.0 mi SSE 16.1 mph 21.9 mph N/A   Overcast
2:53 AM 48.0 °F - 42.1 °F 80% 29.74 in 10.0 mi SSE 13.8 mph 23.0 mph N/A   Overcast
3:53 AM 48.0 °F - 42.1 °F 80% 29.79 in 10.0 mi South 15.0 mph 24.2 mph 0.00 in Rain Light Rain
4:53 AM 46.0 °F 43.1 °F 43.0 °F 89% 29.84 in 10.0 mi Variable 5.8 mph - 0.03 in   Overcast
5:53 AM 45.0 °F 40.6 °F 41.0 °F 86% 29.86 in 10.0 mi SSE 8.1 mph - 0.01 in   Mostly Cloudy
6:53 AM 46.4 °F 42.9 °F 39.2 °F 76% 29.86 in 10.0 mi SSE 6.9 mph - N/A   Overcast
7:53 AM 46.0 °F 41.9 °F 39.0 °F 76% 29.93 in 10.0 mi SSE 8.1 mph - N/A   Overcast
8:53 AM 45.0 °F 43.5 °F 39.9 °F 82% 29.94 in 10.0 mi South 3.5 mph - N/A   Mostly Cloudy
9:53 AM 46.9 °F - 41.0 °F 80% 29.97 in 10.0 mi South 4.6 mph - N/A   Overcast
10:53 AM 48.9 °F - 42.1 °F 77% 29.99 in 10.0 mi SE 6.9 mph - N/A   Overcast
11:53 AM 50.0 °F - 42.1 °F 74% 30.00 in 10.0 mi SE 11.5 mph - N/A   Scattered Clouds
12:12 PM 50.0 °F - 42.8 °F 76% 29.98 in 10.0 mi ESE 15.0 mph - N/A   Mostly Cloudy
12:19 PM 50.0 °F - 42.8 °F 76% 29.98 in 10.0 mi ESE 11.5 mph - N/A   Mostly Cloudy
12:53 PM 50.0 °F - 41.0 °F 71% 29.99 in 10.0 mi ESE 13.8 mph - N/A   Mostly Cloudy
1:53 PM 50.0 °F - 41.0 °F 71% 29.97 in 10.0 mi SE 16.1 mph - N/A   Partly Cloudy
2:53 PM 50.0 °F - 41.0 °F 71% 29.94 in 10.0 mi SE 13.8 mph - N/A   Overcast
3:53 PM 50.0 °F - 39.9 °F 68% 29.93 in 10.0 mi SE 8.1 mph - N/A   Mostly Cloudy
4:53 PM 50.0 °F - 39.0 °F 66% 29.90 in 10.0 mi ESE 10.4 mph - N/A   Overcast
5:53 PM 51.1 °F - 39.9 °F 66% 29.87 in 10.0 mi ESE 11.5 mph - N/A   Overcast
6:51 PM 51.8 °F - 41.0 °F 67% 29.83 in 10.0 mi ESE 18.4 mph 26.5 mph N/A   Overcast
6:53 PM 52.0 °F - 41.0 °F 66% 29.85 in 10.0 mi SE 15.0 mph 25.3 mph N/A   Overcast
7:53 PM 52.0 °F - 42.1 °F 69% 29.82 in 10.0 mi SE 17.3 mph 29.9 mph N/A   Mostly Cloudy
8:02 PM 51.8 °F - 42.8 °F 71% 29.78 in 10.0 mi SE 24.2 mph 31.1 mph N/A   Mostly Cloudy
8:18 PM 51.8 °F - 42.8 °F 71% 29.78 in 10.0 mi SE 20.7 mph 28.8 mph N/A   Mostly Cloudy
8:46 PM 51.8 °F - 42.8 °F 71% 29.76 in 10.0 mi SSE 18.4 mph 33.4 mph N/A   Overcast
8:53 PM 52.0 °F - 42.1 °F 69% 29.78 in 10.0 mi SSE 23.0 mph 32.2 mph N/A   Overcast
9:53 PM 51.8 °F - 42.8 °F 71% 29.70 in 10.0 mi SE 15.0 mph 29.9 mph N/A   Overcast
10:53 PM 53.1 °F - 41.0 °F 64% 29.67 in 10.0 mi SE 17.3 mph 27.6 mph N/A   Overcast
11:53 PM 52.0 °F - 41.0 °F 66% 29.62 in 10.0 mi East 6.9 mph - N/A   Overcast